Location: Newark
(25.6108°S, 54.5803°W)
Time: 10:19:50
(UTC+00:00)

deb Explorer IX - Pass Details

Date: 01 November 2020
Orbit: 538 x 1104 km, 38.8° (Epoch: 23 November)

Event Time Altitude Azimuth Distance (km) Brightness Sun altitude
Rises 01:29:03 0° 240° (WSW) 2,837 ? -41.4°
Enters shadow 01:30:21 - 241° (WSW) 2,313 ? -41.5°
Reaches altitude 10° 01:31:26 10° 242° (WSW) 1,879 - -41.7°
Maximum altitude 01:35:40 74° 327° (NNW) 569 - -42.2°
Drops below altitude 10° 01:39:42 10° 52° (NE) 1,790 - -42.8°
Sets 01:41:55 0° 53° (NE) 2,689 - -43.1°
